1491570001.09,26628,11.94,72744.3,-4.37,-8.07,-8.03,0,*5C
1491570002.3,26629,11.94,72738.3,-4.39,-8.67,-8.63,0,*53
1491570003.52,26630,11.94,72736.5,-4.41,-9.15,-8.93,0,*5F
1491570004.72,26631,11.94,72742.8,-4.45,-8.55,-8.41,0,*50
1491570005.91,26632,11.94,72742.8,-4.45,-8.55,-8.41,0,*53
1491570007.12,26633,11.94,72738.3,-4.47,-8.67,-8.55,0,*54
1491570008.31,26634,11.94,72728.3,-4.49,-8.89,-8.71,0,*5B
1491570009.55,26635,11.94,72722.5,-4.55,-8.85,-8.81,0,*54
1491570010.76,26636,11.94,72724.0,-4.55,-8.63,-8.55,0,*56
1491570011.97,26637,11.94,72722.8,-4.59,-8.59,-8.45,0,*53
1491570013.24,26638,11.94,72718.8,-4.59,-7.99,-7.77,0,*51
1491570014.48,26639,11.94,72718.3,-4.59,-7.65,-7.49,0,*5E
1491570015.7,26640,11.94,72712.0,-4.61,-7.87,-7.73,0,*5E
1491570016.94,26641,11.94,72714.0,-4.61,-7.35,-7.05,0,*57
1491570018.14,26642,11.94,72714.3,-4.61,-7.23,-7.11,0,*56
1491570019.36,26643,11.94,72716.0,-4.61,-7.87,-7.65,0,*5A
1491570020.6,26644,11.94,72724.3,-4.61,-7.77,-7.65,0,*52
1491570021.82,26645,11.94,72714.3,-4.61,-7.35,-7.15,0,*52
1491570023.02,26646,11.94,72718.3,-4.61,-6.73,-6.47,0,*54
1491570024.26,26647,11.94,72716.5,-4.63,-7.91,-7.83,0,*53
1491570025.52,26648,11.94,72720.3,-4.63,-7.31,-7.01,0,*5C
1491570026.74,26649,11.94,72716.3,-4.63,-6.51,-6.35,0,*5C
1491570028.01,26650,11.94,72718.0,-4.63,-6.97,-6.63,0,*5D
1491570029.25,26651,11.94,72720.0,-4.63,-7.31,-7.11,0,*55
1491570030.47,26652,11.94,72728.5,-4.63,-6.77,-6.51,0,*50
1491570031.69,26653,11.94,72736.0,-4.63,-6.77,-6.59,0,*59
1491570032.93,26654,11.94,72744.5,-4.63,-7.31,-7.11,0,*50
1491570034.2,26655,11.94,72742.0,-4.63,-7.43,-7.27,0,*51
1491570035.42,26656,11.94,72740.3,-4.65,-7.15,-7.01,0,*53
1491570036.66,26657,11.94,72742.5,-4.63,-7.15,-6.97,0,*5A
1491570037.87,26658,11.94,72744.5,-4.65,-6.47,-6.23,0,*5A
1491570039.09,26659,11.94,72740.8,-4.67,-6.69,-6.55,0,*54
1491570040.29,26660,11.94,72748.3,-4.65,-6.59,-6.51,0,*5B
1491570041.48,26661,11.94,72744.3,-4.65,-6.59,-6.39,0,*54
1491570042.71,26662,11.94,72744.3,-4.65,-6.09,-5.93,0,*51
1491570043.9,26663,11.94,72744.3,-4.65,-6.47,-6.31,0,*51
1491570045.17,26664,11.94,72744.0,-4.63,-6.19,-5.93,0,*50
1491570046.42,26665,11.94,72744.0,-4.63,-6.35,-6.19,0,*5E
1491570047.67,26666,11.94,72742.3,-4.63,-6.35,-6.19,0,*5D
1491570048.88,26667,11.94,72740.0,-4.61,-6.63,-6.39,0,*5F
1491570050.07,26668,11.94,72744.3,-4.61,-6.35,-6.05,0,*5C
1491570051.29,26669,11.94,72742.8,-4.61,-6.47,-6.19,0,*55
1491570052.49,26670,11.94,72744.3,-4.61,-6.85,-6.59,0,*57
1491570053.68,26671,11.94,72744.5,-4.61,-6.85,-6.69,0,*55
1491570054.92,26672,11.94,72742.0,-4.63,-7.19,-7.01,0,*5F
1491570056.16,26673,11.94,72744.0,-4.63,-6.97,-6.73,0,*5D
1491570057.37,26674,11.94,72742.3,-4.63,-6.85,-6.69,0,*52
1491570058.57,26675,11.94,72742.0,-4.61,-6.59,-6.35,0,*59
1491570059.81,26676,11.94,72740.3,-4.63,-6.63,-6.35,0,*51
1491570061.05,26677,11.94,72746.3,-4.63,-6.19,-5.97,0,*56
1491570062.26,26678,11.94,72744.5,-4.63,-6.47,-6.31,0,*5D
1491570063.51,26679,11.94,72744.5,-4.63,-7.19,-7.01,0,*54
1491570064.75,26680,11.94,72738.5,-4.63,-7.15,-6.97,0,*50
1491570065.97,26681,11.94,72736.5,-4.63,-6.59,-6.31,0,*54
1491570067.21,26682,11.94,72742.5,-4.61,-6.27,-5.93,0,*57
1491570068.45,26683,11.94,72742.8,-4.61,-6.27,-5.93,0,*56
1491570069.69,26684,11.94,72746.3,-4.63,-7.01,-6.89,0,*5E
1491570070.91,26685,11.94,72746.3,-4.63,-7.19,-7.11,0,*56
1491570072.15,26686,11.94,72744.5,-4.63,-7.15,-6.97,0,*56
1491570073.4,26687,11.94,72750.0,-4.63,-6.97,-6.73,0,*56
1491570074.63,26688,11.94,72744.0,-4.63,-7.31,-7.15,0,*55
1491570075.85,26689,11.94,72742.5,-4.63,-7.11,-6.77,0,*53
1491570077.09,26690,11.94,72738.8,-4.63,-6.63,-6.39,0,*55
1491570078.33,26691,11.94,72736.5,-4.63,-6.85,-6.63,0,*53
1491570079.59,26692,11.94,72746.8,-4.63,-7.27,-7.01,0,*5C
1491570080.78,26693,11.94,72752.5,-4.65,-6.89,-6.73,0,*5A
1491570081.98,26694,11.94,72742.3,-4.65,-6.85,-6.59,0,*59
1491570083.2,26695,11.94,72736.3,-4.65,-7.15,-7.01,0,*5C
1491570084.39,26696,11.94,72742.8,-4.65,-6.85,-6.59,0,*5B
1491570085.59,26697,11.94,72742.8,-4.65,-6.31,-6.09,0,*50
1491570086.8,26698,11.94,72736.5,-4.65,-6.47,-6.23,0,*56
1491570088.05,26699,11.94,72740.5,-4.65,-6.19,-5.93,0,*54
1491570089.27,26700,11.94,72738.5,-4.65,-6.51,-6.23,0,*51
1491570090.47,26701,11.94,72734.3,-4.65,-6.35,-6.09,0,*5A
1491570091.69,26702,11.94,72734.0,-4.63,-6.51,-6.31,0,*56
1491570092.93,26703,11.94,72732.5,-4.63,-6.39,-6.19,0,*53
1491570094.17,26704,11.94,72744.3,-4.63,-6.63,-6.47,0,*50
1491570095.39,26705,11.94,72750.3,-4.63,-6.77,-6.59,0,*5B
1491570096.63,26706,11.94,72758.8,-4.63,-6.39,-6.19,0,*56
1491570097.87,26707,11.94,72758.8,-4.63,-6.09,-5.69,0,*50
1491570099.1,26708,11.94,72748.3,-4.61,-5.77,-5.55,0,*58
1491570100.29,26709,11.94,72740.5,-4.61,-6.31,-6.05,0,*5E
1491570101.51,26710,11.94,72738.3,-4.61,-6.31,-6.19,0,*5B
1491570102.71,26711,11.94,72732.8,-4.61,-6.55,-6.31,0,*52
1491570103.95,26712,11.94,72742.3,-4.61,-6.27,-5.93,0,*5F
1491570105.18,26713,11.94,72740.5,-4.61,-6.93,-6.59,0,*54
1491570106.41,26714,11.94,72732.8,-4.61,-7.27,-7.05,0,*55
1491570107.66,26715,11.94,72742.0,-4.61,-7.65,-7.39,0,*5D
1491570108.87,26716,11.94,72754.3,-4.63,-6.31,-6.05,0,*52
1491570110.09,26717,11.94,72750.8,-4.61,-6.59,-6.27,0,*5F
1491570111.32,26718,11.94,72748.8,-4.63,-6.63,-6.39,0,*54
1491570112.54,26719,11.94,72754.5,-4.61,-6.19,-6.01,0,*51
1491570113.77,26720,11.94,72758.0,-4.61,-6.35,-6.19,0,*5C
1491570115.01,26721,11.94,72754.0,-4.59,-6.93,-6.59,0,*5E
1491570116.26,26722,11.94,72756.5,-4.59,-7.05,-6.81,0,*56
1491570117.49,26723,11.94,72752.5,-4.59,-7.23,-7.05,0,*5E
1491570118.68,26724,11.94,72752.3,-4.61,-6.69,-6.43,0,*5E
1491570119.88,26725,11.94,72754.8,-4.61,-6.31,-6.13,0,*57
1491570121.1,26726,11.94,72752.5,-4.61,-6.35,-5.93,0,*5B
1491570122.32,26727,11.94,72748.5,-4.57,-6.13,-5.89,0,*50
1491570123.53,26728,11.94,72750.8,-4.55,-6.31,-6.01,0,*5E
1491570124.75,26729,11.94,72748.0,-4.57,-7.35,-7.19,0,*50
1491570125.97,26730,11.94,72744.0,-4.57,-6.97,-6.69,0,*57
1491570127.18,26731,11.94,72750.0,-4.59,-6.73,-6.43,0,*5A
1491570128.4,26732,11.94,72748.0,-4.57,-7.01,-6.77,0,*54
1491570129.62,26733,11.94,72744.0,-4.59,-6.81,-6.43,0,*55
1491570130.86,26734,11.94,72740.5,-4.59,-6.97,-6.73,0,*56
1491570132.07,26735,11.94,72736.0,-4.59,-6.85,-6.47,0,*53
1491570133.29,26736,11.94,72738.3,-4.59,-6.81,-6.47,0,*54
1491570134.51,26737,11.94,72738.5,-4.59,-6.55,-6.35,0,*59
1491570135.75,26738,11.94,72736.0,-4.59,-7.39,-7.15,0,*5E
1491570137.01,26739,11.94,72738.0,-4.59,-6.27,-5.89,0,*56
1491570138.26,26740,11.94,72738.5,-4.57,-5.31,-4.81,0,*5B
1491570139.51,26741,11.94,72742.0,-4.57,-5.85,-5.61,0,*5A
1491570140.73,26742,11.94,72750.0,-4.57,-5.47,-5.19,0,*58
1491570141.99,26743,11.94,72754.8,-4.55,-5.11,-4.69,0,*5E
1491570143.25,26744,11.94,72750.0,-4.51,-5.55,-5.31,0,*51
1491570144.5,26745,11.94,72738.8,-4.51,-6.35,-6.19,0,*5C
1491570145.73,26746,11.94,72746.5,-4.51,-6.27,-6.05,0,*51
1491570146.94,26747,11.94,72742.3,-4.51,-6.39,-6.09,0,*53
1491570148.16,26748,11.94,72742.0,-4.51,-6.35,-6.09,0,*50
1491570149.41,26749,11.94,72742.3,-4.51,-5.69,-5.35,0,*57
1491570150.68,26750,11.94,72740.3,-4.51,-6.19,-5.93,0,*57
1491570151.91,26751,11.94,72748.5,-4.51,-6.63,-6.47,0,*51
1491570153.1,26752,11.94,72748.8,-4.49,-6.89,-6.73,0,*58
1491570154.32,26753,11.94,72748.3,-4.51,-6.73,-6.47,0,*52
1491570155.54,26754,11.94,72756.0,-4.51,-6.39,-6.09,0,*51
1491570156.81,26755,11.94,72742.5,-4.51,-5.85,-5.61,0,*59
1491570158.06,26756,11.94,72736.3,-4.51,-6.09,-5.81,0,*53
1491570159.28,26757,11.94,72738.5,-4.51,-6.35,-6.05,0,*52
1491570160.49,26758,11.94,72740.8,-4.51,-6.73,-6.39,0,*50
1491570161.7,26759,11.94,72736.5,-4.49,-7.39,-7.15,0,*58
1491570162.95,26760,11.94,72730.0,-4.51,-8.33,-8.07,0,*52
1491570164.19,26761,11.94,72724.0,-4.55,-7.87,-7.61,0,*58
1491570165.43,26762,11.94,72710.8,-4.55,-7.23,-7.01,0,*53
1491570166.67,26763,11.94,72722.5,-4.55,-7.83,-7.61,0,*5E
1491570167.91,26764,11.94,72734.5,-4.59,-7.73,-7.53,0,*5B
1491570169.18,26765,11.94,72740.3,-4.59,-7.77,-7.65,0,*5B
1491570170.42,26766,11.94,72744.8,-4.59,-7.35,-7.11,0,*5D
1491570171.66,26767,11.94,72742.5,-4.59,-7.27,-7.15,0,*5B
1491570172.93,26768,11.94,72740.5,-4.59,-7.61,-7.39,0,*58
1491570174.15,26769,11.94,72746.5,-4.61,-7.23,-6.97,0,*51
1491570175.35,26770,11.94,72742.0,-4.61,-6.51,-6.31,0,*51
1491570176.59,26771,11.94,72732.5,-4.63,-6.63,-6.35,0,*57
1491570177.8,26772,11.94,72740.0,-4.63,-6.85,-6.59,0,*56
1491570178.99,26773,11.94,72744.8,-4.61,-6.69,-6.47,0,*58
1491570180.23,26774,11.94,72752.0,-4.63,-7.39,-7.15,0,*5F
1491570181.48,26775,11.94,72750.3,-4.63,-8.25,-8.07,0,*50
1491570182.69,26776,11.94,72748.5,-4.65,-7.31,-6.85,0,*5B
1491570183.91,26777,11.94,72754.3,-4.65,-6.51,-6.23,0,*51
1491570185.11,26778,11.94,72748.5,-4.65,-6.59,-6.35,0,*51
1491570186.33,26779,11.94,72748.0,-4.65,-5.97,-5.69,0,*5B
1491570187.56,26780,11.94,72748.0,-4.61,-5.81,-5.51,0,*55
1491570188.75,26781,11.94,72750.8,-4.61,-6.69,-6.35,0,*50
1491570189.97,26782,11.94,72744.8,-4.63,-6.35,-6.13,0,*5C
1491570191.19,26783,11.94,72746.5,-4.61,-6.31,-6.19,0,*51
1491570192.41,26784,11.94,72744.3,-4.61,-6.55,-6.19,0,*54
1491570193.6,26785,11.94,72746.5,-4.61,-6.31,-6.13,0,*5D
1491570194.83,26786,11.94,72746.5,-4.61,-6.59,-6.27,0,*57
1491570196.05,26787,11.94,72748.8,-4.61,-6.59,-6.19,0,*5B
1491570197.24,26788,11.94,72744.0,-4.61,-6.85,-6.59,0,*51
1491570198.47,26789,11.94,72744.8,-4.61,-6.93,-6.55,0,*5B
1491570199.69,26790,11.94,72746.0,-4.61,-6.47,-6.19,0,*52
1491570200.93,26791,11.94,72750.0,-4.59,-6.05,-5.89,0,*54
1491570202.14,26792,11.94,72754.5,-4.59,-6.43,-6.13,0,*55
1491570203.36,26793,11.94,72752.8,-4.57,-6.47,-6.27,0,*59
1491570204.57,26794,11.94,72754.5,-4.59,-6.73,-6.47,0,*51
1491570205.83,26795,11.94,72742.3,-4.59,-7.27,-6.97,0,*5D
1491570207.04,26796,11.94,72750.3,-4.59,-8.29,-8.17,0,*59
1491570208.31,26797,11.94,72742.3,-4.63,-7.95,-7.77,0,*50
1491570209.55,26798,11.94,72738.0,-4.63,-7.31,-7.11,0,*51
1491570210.77,26799,11.94,72736.5,-4.63,-7.11,-6.85,0,*5E
1491570211.99,26800,11.94,72738.5,-4.63,-7.11,-6.77,0,*5C
1491570213.18,26801,11.94,72736.0,-4.65,-6.35,-6.09,0,*55
1491570214.45,26802,11.94,72746.5,-4.63,-6.19,-5.93,0,*5E
1491570215.67,26803,11.94,72748.5,-4.63,-6.59,-6.35,0,*54
1491570216.89,26804,11.94,72748.8,-4.63,-6.73,-6.47,0,*5E
1491570218.15,26805,11.94,72746.8,-4.63,-7.77,-7.65,0,*5B
1491570219.37,26806,11.94,72738.5,-4.63,-7.53,-7.19,0,*55
1491570220.59,26807,11.94,72738.5,-4.63,-6.77,-6.47,0,*59
1491570221.85,26808,11.94,72736.3,-4.63,-6.23,-5.85,0,*5A
1491570223.12,26809,11.94,72736.0,-4.63,-5.93,-5.69,0,*51
1491570224.36,26810,11.94,72738.3,-4.63,-6.09,-5.73,0,*52
1491570225.58,26811,11.94,72742.3,-4.61,-6.27,-6.01,0,*5B
1491570226.79,26812,11.94,72744.3,-4.63,-6.69,-6.47,0,*52
1491570228.03,26813,11.94,72746.0,-4.59,-6.43,-6.19,0,*59
1491570229.23,26814,11.94,72742.0,-4.61,-6.55,-6.31,0,*58
1491570230.45,26815,11.94,72740.5,-4.59,-6.43,-6.13,0,*55
1491570231.67,26816,11.94,72746.8,-4.61,-6.19,-6.01,0,*51
1491570232.86,26817,11.94,72746.8,-4.61,-7.11,-6.85,0,*55
1491570234.06,26818,11.94,72750.0,-4.61,-6.35,-6.01,0,*51
1491570235.33,26819,11.94,72748.0,-4.59,-5.89,-5.69,0,*52
1491570236.54,26820,11.94,72750.0,-4.59,-6.69,-6.43,0,*5E
1491570237.78,26821,11.94,72750.3,-4.59,-6.47,-6.27,0,*51
1491570238.99,26822,11.94,72754.0,-4.59,-6.69,-6.31,0,*59
1491570240.21,26823,11.94,72752.0,-4.59,-6.05,-5.55,0,*53
1491570241.4,26824,11.94,72754.3,-4.57,-6.77,-6.43,0,*5B
1491570242.62,26825,11.94,72752.5,-4.57,-7.31,-7.19,0,*57
1491570243.86,26826,11.94,72748.8,-4.59,-7.23,-6.97,0,*5E
1491570245.13,26827,11.94,72750.0,-4.59,-7.65,-7.35,0,*54
1491570246.34,26828,11.94,72752.0,-4.63,-8.59,-8.45,0,*5A
1491570247.56,26829,11.94,72754.5,-4.63,-8.71,-8.63,0,*55
1491570248.75,26830,11.94,72744.3,-4.65,-8.75,-8.75,0,*58
1491570249.97,26831,11.94,72744.5,-4.67,-7.49,-7.15,0,*52
1491570251.18,26832,11.94,72744.0,-4.69,-6.77,-6.43,0,*51
1491570252.43,26833,11.94,72736.3,-4.69,-6.55,-6.27,0,*52
1491570253.62,26834,11.94,72732.0,-4.65,-6.47,-6.31,0,*5D
1491570254.87,26835,11.94,72742.3,-4.67,-6.01,-5.65,0,*5E
1491570256.1,26836,11.94,72742.3,-4.65,-5.85,-5.55,0,*53
1491570257.3,26837,11.94,72748.5,-4.65,-6.35,-6.05,0,*5C
1491570258.52,26838,11.94,72740.3,-4.65,-7.27,-7.11,0,*55
1491570259.74,26839,11.94,72736.5,-4.65,-8.03,-7.83,0,*56
1491570260.95,26840,11.94,72736.8,-4.67,-8.67,-8.55,0,*5C
1491570262.18,26841,11.94,72730.8,-4.67,-8.97,-8.89,0,*53
1491570263.39,26842,11.94,72730.8,-4.71,-9.37,-9.23,0,*5D
1491570264.6,26843,11.94,72726.3,-4.73,-8.33,-8.29,0,*50
1491570265.82,26844,11.94,72724.0,-4.73,-7.49,-7.19,0,*59
1491570267.07,26845,11.94,72720.3,-4.73,-7.19,-6.93,0,*5E
1491570268.29,26846,11.94,72722.3,-4.77,-7.11,-6.77,0,*5B
1491570269.57,26847,11.94,72726.5,-4.77,-6.97,-6.63,0,*50
1491570270.8,26848,11.94,72730.3,-4.77,-6.77,-6.47,0,*57
1491570272.07,26849,11.94,72724.3,-4.73,-6.27,-5.89,0,*56
1491570273.32,26850,11.94,72730.0,-4.77,-6.43,-6.19,0,*52
1491570274.5,26851,11.94,72730.3,-4.71,-6.39,-6.13,0,*52
1491570275.69,26852,11.94,72728.5,-4.71,-6.31,-6.01,0,*5A
1491570276.91,26853,11.94,72730.8,-4.71,-6.43,-6.19,0,*57
1491570278.15,26854,11.94,72738.0,-4.69,-6.09,-5.73,0,*58
1491570279.4,26855,11.94,72738.0,-4.69,-5.51,-5.31,0,*51
1491570280.61,26856,11.94,72732.8,-4.69,-6.39,-6.09,0,*57
1491570281.83,26857,11.94,72734.8,-4.67,-6.43,-6.09,0,*55
1491570283.1,26858,11.94,72736.8,-4.67,-6.27,-5.85,0,*5F
1491570284.33,26859,11.94,72740.0,-4.67,-6.81,-6.43,0,*5B
1491570285.57,26860,11.94,72740.0,-4.67,-7.05,-6.77,0,*5B
1491570286.79,26861,11.94,72734.0,-4.67,-6.35,-6.01,0,*59
1491570288.01,26862,11.94,72736.3,-4.65,-6.13,-5.77,0,*5E
1491570289.26,26863,11.94,72738.0,-4.67,-6.55,-6.23,0,*5D
1491570290.47,26864,11.94,72738.8,-4.67,-6.43,-6.13,0,*5E
1491570291.71,26865,11.94,72742.0,-4.67,-6.27,-6.09,0,*56
1491570292.94,26866,11.94,72738.8,-4.67,-6.89,-6.55,0,*58
1491570294.21,26867,11.94,72750.0,-4.67,-6.93,-6.63,0,*57
1491570295.48,26868,11.94,72746.8,-4.67,-7.61,-7.35,0,*56
1491570296.75,26869,11.94,72746.3,-4.67,-7.31,-7.01,0,*55
1491570298.01,26870,11.94,72752.5,-4.67,-6.63,-6.27,0,*5E
1491570299.29,26871,11.94,72756.8,-4.67,-6.27,-5.89,0,*58
1491570300.5,26872,11.94,72762.0,-4.67,-6.39,-6.09,0,*5F
1491570301.72,26873,11.94,72760.3,-4.67,-6.89,-6.51,0,*58
1491570303.0,26874,11.94,72760.8,-4.67,-7.43,-7.31,0,*5F
1491570304.24,26875,11.94,72756.0,-4.67,-7.69,-7.49,0,*59
1491570305.43,26876,11.94,72756.3,-4.71,-8.45,-8.21,0,*5D
1491570306.67,26877,11.94,72752.8,-4.71,-8.11,-7.91,0,*59
1491570307.92,26878,11.94,72750.0,-4.73,-7.87,-7.65,0,*5F
1491570309.19,26879,11.94,72746.3,-4.73,-8.11,-7.77,0,*5D
1491570310.44,26880,11.94,72746.5,-4.77,-7.43,-7.23,0,*56
1491570311.69,26881,11.94,72750.8,-4.81,-7.87,-7.69,0,*58
1491570312.9,26882,11.94,72748.8,-4.79,-8.21,-7.95,0,*5C
1491570314.09,26883,11.94,72744.8,-4.79,-8.37,-8.25,0,*5E
1491570315.31,26884,11.94,72744.8,-4.79,-8.25,-8.11,0,*5D
1491570316.53,26885,11.94,72740.8,-4.83,-8.29,-8.11,0,*55
1491570317.8,26886,11.94,72742.0,-4.85,-7.99,-7.77,0,*5B
1491570319.02,26887,11.94,72742.0,-4.83,-7.53,-7.31,0,*58
1491570320.27,26888,11.94,72742.8,-4.85,-7.77,-7.49,0,*58
1491570321.5,26889,11.94,72744.5,-4.85,-6.55,-6.31,0,*56
1491570322.77,26890,11.94,72742.8,-4.85,-5.89,-5.69,0,*52
1491570324.0,26891,11.94,72740.0,-4.83,-6.51,-6.27,0,*5A
1491570325.22,26892,11.94,72742.0,-4.83,-6.97,-6.73,0,*52
1491570326.44,26893,11.94,72746.5,-4.83,-7.77,-7.53,0,*5F
1491570327.69,26894,11.94,72760.3,-4.85,-7.87,-7.61,0,*50
1491570328.88,26895,11.94,72758.0,-4.83,-6.59,-6.39,0,*59
1491570330.1,26896,11.94,72758.5,-4.83,-6.31,-5.93,0,*57
1491570331.33,26897,11.94,72758.3,-4.83,-6.05,-5.81,0,*52
1491570332.54,26898,11.94,72750.5,-4.83,-7.49,-7.31,0,*5D
1491570333.81,26899,11.94,72742.3,-4.85,-7.39,-7.31,0,*5D
1491570335.03,26900,11.94,72736.3,-4.83,-7.87,-7.39,0,*57
1491570336.23,26901,11.94,72734.8,-4.83,-7.11,-6.69,0,*5D
1491570337.45,26902,11.94,72730.0,-4.83,-6.01,-5.69,0,*5D
1491570338.7,26903,11.94,72724.3,-4.83,-5.81,-5.65,0,*5B
1491570339.92,26904,11.94,72724.8,-4.81,-6.69,-6.47,0,*58
1491570341.13,26905,11.94,72730.0,-4.81,-6.47,-6.13,0,*54
1491570342.37,26906,11.94,72732.0,-4.81,-6.23,-5.97,0,*5A
1491570343.56,26907,11.94,72734.3,-4.79,-6.89,-6.69,0,*5E
1491570344.83,26908,11.94,72738.5,-4.81,-7.43,-7.27,0,*5A
1491570346.05,26909,11.94,72736.3,-4.81,-6.39,-6.13,0,*51
1491570347.25,26910,11.94,72732.0,-4.79,-6.81,-6.55,0,*5F
1491570348.46,26911,11.94,72734.8,-4.81,-6.89,-6.69,0,*5E
1491570349.66,26912,11.94,72744.8,-4.79,-6.55,-6.39,0,*5E
1491570350.89,26913,11.94,72752.0,-4.81,-6.63,-6.39,0,*5D
1491570352.11,26914,11.94,72754.5,-4.79,-7.19,-7.01,0,*5B
1491570353.32,26915,11.94,72744.5,-4.79,-7.15,-6.81,0,*5F
1491570354.53,26916,11.94,72746.5,-4.79,-6.89,-6.63,0,*54
1491570355.73,26917,11.94,72750.0,-4.79,-6.81,-6.51,0,*5C
1491570356.98,26918,11.94,72752.8,-4.79,-6.23,-5.85,0,*51
1491570358.19,26919,11.94,72748.3,-4.79,-6.27,-6.01,0,*5B
1491570359.41,26920,11.94,72750.8,-4.79,-6.13,-5.73,0,*50
1491570360.68,26921,11.94,72748.3,-4.77,-5.93,-5.81,0,*59
1491570361.93,26922,11.94,72744.3,-4.77,-6.97,-6.59,0,*5B
1491570363.21,26923,11.94,72740.5,-4.73,-6.19,-5.81,0,*5E
1491570364.48,26924,11.94,72740.5,-4.73,-6.19,-5.89,0,*51
1491570365.7,26925,11.94,72740.8,-4.73,-6.39,-6.13,0,*52
1491570366.95,26926,11.94,72746.8,-4.73,-5.77,-5.39,0,*53
1491570368.13,26927,11.94,72746.5,-4.71,-6.31,-6.13,0,*5A
1491570369.37,26928,11.94,72740.5,-4.69,-6.43,-6.23,0,*5A
1491570370.59,26929,11.94,72742.5,-4.69,-6.55,-6.35,0,*5B
1491570371.8,26930,11.94,72744.5,-4.71,-6.97,-6.69,0,*5D
1491570373.02,26931,11.94,72744.5,-4.71,-7.83,-7.61,0,*51
1491570374.21,26932,11.94,72744.0,-4.71,-8.45,-8.41,0,*5A
1491570375.43,26933,11.94,72734.3,-4.73,-8.41,-8.21,0,*5B
1491570376.68,26934,11.94,72736.3,-4.77,-7.83,-7.65,0,*56
1491570377.93,26935,11.94,72742.8,-4.77,-6.89,-6.63,0,*5B
1491570379.15,26936,11.94,72748.8,-4.77,-6.35,-5.97,0,*57
1491570380.41,26937,11.94,72748.3,-4.77,-6.59,-6.19,0,*59
1491570381.65,26938,11.94,72752.0,-4.77,-7.23,-6.97,0,*5C
1491570382.9,26939,11.94,72744.8,-4.77,-7.27,-7.15,0,*52
1491570384.15,26940,11.94,72744.0,-4.77,-8.17,-7.91,0,*5C
1491570385.4,26941,11.94,72744.3,-4.81,-8.29,-8.07,0,*59
1491570386.64,26942,11.94,72748.5,-4.81,-7.49,-7.27,0,*5E
1491570387.89,26943,11.94,72742.0,-4.81,-7.87,-7.73,0,*5C
1491570389.11,26944,11.94,72742.3,-4.81,-8.55,-8.41,0,*55
1491570390.33,26945,11.94,72740.8,-4.85,-8.55,-8.41,0,*50
1491570391.55,26946,11.94,72740.3,-4.87,-8.29,-7.91,0,*58
1491570392.78,26947,11.94,72736.8,-4.87,-8.51,-8.37,0,*55
1491570393.99,26948,11.94,72734.0,-4.89,-8.33,-8.17,0,*52
1491570395.25,26949,11.94,72720.5,-4.89,-9.15,-8.89,0,*51
1491570396.47,26950,11.94,72726.5,-4.91,-7.43,-7.19,0,*5B
1491570397.7,26951,11.94,72724.5,-4.93,-6.81,-6.51,0,*5A
1491570398.9,26952,11.94,72734.0,-4.91,-6.69,-6.47,0,*5A
1491570400.1,26953,11.94,72732.0,-4.91,-6.51,-6.35,0,*55
1491570401.32,26954,11.94,72734.5,-4.89,-6.47,-6.09,0,*53
1491570402.56,26955,11.94,72738.5,-4.89,-6.47,-6.23,0,*5A
1491570403.76,26956,11.94,72738.5,-4.87,-6.59,-6.43,0,*5E
1491570405.04,26957,11.94,72742.5,-4.89,-6.97,-6.63,0,*51
1491570406.23,26958,11.94,72742.0,-4.87,-6.35,-5.97,0,*50
1491570407.48,26959,11.94,72744.5,-4.87,-6.19,-5.69,0,*5E
1491570408.76,26960,11.94,72746.8,-4.85,-5.89,-5.65,0,*50
1491570410.04,26961,11.94,72746.5,-4.85,-6.19,-5.89,0,*59
1491570411.26,26962,11.94,72736.8,-4.85,-6.69,-6.43,0,*58
1491570412.45,26963,11.94,72734.3,-4.83,-7.49,-7.23,0,*5B
1491570413.68,26964,11.94,72736.8,-4.83,-6.97,-6.59,0,*52
1491570414.88,26965,11.94,72742.5,-4.83,-6.81,-6.43,0,*5F
1491570416.1,26966,11.94,72742.0,-4.85,-6.73,-6.43,0,*57
1491570417.32,26967,11.94,72740.5,-4.83,-6.13,-5.77,0,*52
1491570418.54,26968,11.94,72740.3,-4.83,-6.13,-5.81,0,*54
1491570419.76,26969,11.94,72742.3,-4.83,-6.27,-6.05,0,*5D
1491570420.97,26970,11.94,72740.5,-4.79,-6.27,-5.97,0,*58
1491570422.19,26971,11.94,72744.8,-4.81,-6.55,-6.35,0,*50
1491570423.44,26972,11.94,72740.8,-4.79,-6.23,-5.89,0,*51
1491570424.63,26973,11.94,72746.0,-4.79,-6.35,-6.01,0,*54
1491570425.91,26974,11.94,72746.8,-4.81,-6.23,-5.89,0,*50
1491570427.12,26975,11.94,72742.0,-4.79,-6.27,-5.97,0,*5D
1491570428.33,26976,11.94,72744.8,-4.79,-6.27,-6.01,0,*52
1491570429.58,26977,11.94,72744.5,-4.77,-6.09,-5.81,0,*5A
1491570430.85,26978,11.94,72748.0,-4.77,-6.23,-6.19,0,*5F
1491570432.08,26979,11.94,72746.0,-4.77,-6.35,-6.05,0,*54
1491570433.32,26980,11.94,72746.0,-4.77,-6.59,-6.23,0,*5C
1491570434.55,26981,11.94,72744.3,-4.77,-6.77,-6.47,0,*53
1491570435.79,26982,11.94,72750.0,-4.73,-6.55,-6.27,0,*52
1491570437.07,26983,11.94,72746.3,-4.73,-6.19,-5.89,0,*5C
1491570438.34,26984,11.94,72744.3,-4.73,-5.93,-5.65,0,*58
1491570439.59,26985,11.94,72738.8,-4.73,-6.43,-6.19,0,*5F
1491570440.84,26986,11.94,72746.0,-4.69,-6.09,-5.77,0,*52
1491570442.04,26987,11.94,72736.5,-4.71,-6.27,-6.01,0,*54
1491570443.29,26988,11.94,72736.5,-4.71,-6.19,-5.89,0,*55
1491570444.5,26989,11.94,72740.3,-4.71,-6.27,-6.01,0,*5A
1491570445.69,26990,11.94,72744.0,-4.71,-6.35,-6.13,0,*52
1491570446.93,26991,11.94,72742.5,-4.71,-7.05,-6.97,0,*5D
1491570448.11,26992,11.94,72736.5,-4.71,-6.73,-6.39,0,*5A
1491570449.33,26993,11.94,72738.5,-4.71,-6.05,-5.65,0,*50
1491570450.57,26994,11.94,72738.5,-4.69,-6.09,-5.65,0,*52
1491570451.82,26995,11.94,72738.3,-4.67,-6.13,-5.85,0,*58
1491570453.07,26996,11.94,72742.3,-4.67,-6.55,-6.27,0,*52
1491570454.29,26997,11.94,72736.3,-4.69,-6.77,-6.43,0,*5F
1491570455.53,26998,11.94,72742.5,-4.69,-7.05,-6.77,0,*53
1491570456.77,26999,11.94,72740.5,-4.69,-7.05,-6.77,0,*52
1491570457.98,27000,11.94,72740.0,-4.71,-6.93,-6.69,0,*52
1491570459.2,27001,11.94,72734.0,-4.69,-6.55,-6.35,0,*59
1491570460.39,27002,11.94,72736.5,-4.71,-6.59,-6.39,0,*53
1491570461.63,27003,11.94,72738.3,-4.69,-6.55,-6.27,0,*58
1491570462.85,27004,11.94,72732.3,-4.69,-6.43,-6.09,0,*54
1491570464.06,27005,11.94,72736.0,-4.71,-7.05,-6.85,0,*5B
1491570465.3,27006,11.94,72736.0,-4.69,-7.05,-6.77,0,*5C
1491570466.52,27007,11.94,72746.3,-4.71,-6.93,-6.59,0,*56
1491570467.71,27008,11.94,72740.8,-4.71,-6.39,-6.31,0,*57
1491570468.92,27009,11.94,72740.0,-4.71,-6.69,-6.27,0,*54
1491570470.14,27010,11.94,72734.5,-4.71,-5.85,-5.51,0,*5F
1491570471.38,27011,11.94,72734.8,-4.69,-5.65,-5.43,0,*5A
1491570472.63,27012,11.94,72728.3,-4.69,-5.77,-5.51,0,*59
1491570473.87,27013,11.94,72734.0,-4.69,-5.77,-5.51,0,*58
1491570475.14,27014,11.94,72730.8,-4.69,-5.73,-5.61,0,*58
1491570476.36,27015,11.94,72734.5,-4.65,-5.97,-5.73,0,*5C
1491570477.55,27016,11.94,72730.5,-4.65,-6.31,-6.05,0,*52
1491570478.75,27017,11.94,72732.3,-4.65,-6.69,-6.35,0,*5D
1491570479.99,27018,11.94,72738.3,-4.65,-6.23,-5.81,0,*50
1491570481.18,27019,11.94,72732.8,-4.65,-6.09,-5.97,0,*5E
1491570482.4,27020,11.94,72734.3,-4.65,-6.23,-6.05,0,*54
1491570483.62,27021,11.94,72734.8,-4.65,-6.35,-6.19,0,*5F
1491570484.82,27022,11.94,72734.5,-4.65,-6.59,-6.39,0,*54
1491570486.04,27023,11.94,72738.0,-4.65,-6.05,-5.81,0,*5C
1491570487.24,27024,11.94,72740.3,-4.61,-5.55,-5.39,0,*5A
1491570488.48,27025,11.94,72744.5,-4.63,-5.43,-5.19,0,*5C
1491570489.7,27026,11.94,72744.5,-4.61,-5.69,-5.39,0,*57
1491570490.92,27027,11.94,72744.5,-4.61,-5.69,-5.51,0,*58
1491570492.14,27028,11.94,72754.8,-4.61,-6.13,-5.81,0,*54
1491570493.34,27029,11.94,72752.8,-4.61,-5.55,-5.43,0,*5A
1491570494.55,27030,11.94,72752.8,-4.61,-6.27,-6.05,0,*55
1491570495.75,27031,11.94,72752.3,-4.61,-6.73,-6.55,0,*50
1491570496.97,27032,11.94,72758.5,-4.61,-6.47,-6.27,0,*51
1491570498.18,27033,11.94,72752.5,-4.61,-6.43,-6.27,0,*54
1491570499.41,27034,11.94,72752.5,-4.61,-5.81,-5.51,0,*5C
1491570500.63,27035,11.94,72754.8,-4.61,-5.69,-5.43,0,*58
1491570501.87,27036,11.94,72754.3,-4.59,-6.01,-5.69,0,*55
1491570503.09,27037,11.94,72754.8,-4.57,-5.47,-5.19,0,*5C
1491570504.34,27038,11.94,72752.5,-4.57,-5.19,-4.81,0,*58
1491570505.56,27039,11.94,72754.8,-4.57,-5.51,-5.31,0,*5F
1491570506.79,27040,11.94,72748.0,-4.55,-5.73,-5.47,0,*52
1491570508.04,27041,11.94,72750.0,-4.55,-5.77,-5.51,0,*50